Orbital Elements at Epoch 2459200.5 (2020-Dec-17.0) TDB
Reference: JPL 16 (heliocentric ecliptic J2000)
Element | Value | Uncertainty (1-sigma) | Units |
e | .2301667335440624 | 3.489e-08 | |
a | 2.579906451424292 | 1.5622e-08 | au |
q | 1.986097810650709 | 9.5289e-08 | au |
i | 5.415385188058076 | 6.3123e-06 | deg |
node | 156.8736616324988 | 3.8014e-05 | deg |
peri | 282.577012163444 | 4.3463e-05 | deg |
M | 306.7475718599629 | 2.3412e-05 | deg |
tp | 2459424.393393506376 (2021-Jul-28.89339351) | 9.9999e-05 | TDB |
period | 1513.576459844022 4.14 | 1.3748e-05 3.764e-08 | d yr |
n | .2378472508994352 | 2.1604e-09 | deg/d |
Q | 3.173715092197874 | 1.9218e-08 | au |
|
| | Orbit Determination Parameters
Additional Information
|